Regional Weather Roundup
Issued by NWS

Home | Current Version | Previous Version | Text Only | Print | Product List | Glossary Off
Versions: 1 2 3 4 5 6 7 8 9 10 11 12 13 14 15 16 17 18 19 20 21 22 23 24 25 26 27 28 29 30 31 32 33 34 35 36 37 38 39 40 41 42 43 44 45 46 47 48 49 50

000
ASUS43 KOAX 282102
RWRNE

WEATHER ROUNDUP FOR NEBRASKA
NATIONAL WEATHER SERVICE OMAHA NE
400 PM CDT WED SEP 28 2016

NOTES: SATELLITE DATA IS BEING USED TO AUGMENT CLOUD COVER ABOVE
       12000 FEET.
       "FAIR" INDICATES FEW OR NO CLOUDS BELOW 12,000 FEET WITH NO
       SIGNIFICANT WEATHER AND/OR OBSTRUCTIONS TO VISIBILITY.

  * THESE STATIONS DO NOT REPORT WEATHER SUCH AS RAIN...SNOW OR FOG.

NEZ001>004-019>022-054>056-282200-
NEBRASKA PANHANDLE

CITY           SKY/WX    TMP DP  RH WIND       PRES   REMARKS
SCOTTSBLUFF    SUNNY     81  38  21 S3        30.27S
ALLIANCE       SUNNY     81  39  22 CALM      30.25F
CHADRON        SUNNY     82  40  22 VRB3      30.23S
KIMBALL        SUNNY     76  41  28 E3        30.32S
SIDNEY         SUNNY     80  36  20 E6G17     30.29F
$$

NEZ057>060-069>072-079>082-282200-
SOUTHWEST NEBRASKA

CITY           SKY/WX    TMP DP  RH WIND       PRES   REMARKS
NORTH PLATTE   SUNNY     78  40  25 NE9       30.23S
IMPERIAL       SUNNY     82  33  17 N13       30.24S
LEXINGTON      SUNNY     75  35  23 NE14      30.23R
MCCOOK         SUNNY     81  43  26 NE9       30.21R
OGALLALA       SUNNY    N/A N/A N/A CALM      30.24S
$$

NEZ005>010-023>029-035>040-094-282200-
NORTH CENTRAL NEBRASKA

CITY           SKY/WX    TMP DP  RH WIND       PRES   REMARKS
VALENTINE      SUNNY     72  32  23 NE12      30.26S
AINSWORTH      SUNNY     71  30  22 N8        30.26S
BROKEN BOW     SUNNY     74  24  15 N14       30.23S
O`NEILL        SUNNY     66  41  40 N5        30.26S
ORD            SUNNY     70  45  40 NE10G18   30.22S
THEDFORD       SUNNY     76  43  30 NE8       30.26R
$$

NEZ041-046>049-061>064-073>077-083>087-282200-
SOUTH CENTRAL NEBRASKA

CITY           SKY/WX    TMP DP  RH WIND       PRES   REMARKS
GRAND ISLAND   SUNNY     69  42  37 N9        30.22S
AURORA         SUNNY     68  42  38 N10       30.22R
HASTINGS       SUNNY     70  43  37 NE10      30.23R
HEBRON         SUNNY     70  42  36 N14       30.19S
HOLDREGE       SUNNY     73  26  16 N10G17    30.22S
KEARNEY *      SUNNY     73  34  23 N14G20    30.21S
YORK           SUNNY     66  45  45 N9        30.22R
$$

NEZ011>018-030>034-042>045-282200-
NORTHEAST NEBRASKA

CITY           SKY/WX    TMP DP  RH WIND       PRES   REMARKS
NORFOLK        SUNNY     67  41  38 N14       30.23S
ALBION         SUNNY     67  43  41 N9        30.24R
BLAIR          SUNNY     64  48  56 N16G22    30.21S
FREMONT        SUNNY     66  44  44 NE9       30.23R
TEKAMAH        SUNNY     65  46  50 N14G22    30.23R
WAYNE          SUNNY     65  46  50 NE13      30.25R
$$

NEZ050>053-065>068-078-088>093-282200-
SOUTHEAST NEBRASKA

CITY           SKY/WX    TMP DP  RH WIND       PRES   REMARKS
LINCOLN        SUNNY     70  44  39 N12       30.21R
OMAHA EPPLEY   MOSUNNY   66  46  48 N14       30.21R
BEATRICE       SUNNY     69  46  43 N9        30.19S
FALLS CITY     SUNNY     67  48  50 N12       30.17R
NEBRASKA CITY  SUNNY     65  39  38 N10       30.20R
PLATTSMOUTH    SUNNY     65  42  43 N8        30.20S
$$

NEZ044-045-051>053-067-282200-
OMAHA AREA

CITY           SKY/WX    TMP DP  RH WIND       PRES   REMARKS
OMAHA EPPLEY   MOSUNNY   66  46  48 N14       30.21R
BLAIR          SUNNY     64  48  56 N16G22    30.21S
FREMONT        SUNNY     66  44  44 NE9       30.23R
MILLARD        SUNNY     65  48  52 NE6       30.21R
OFFUTT AFB     MOSUNNY   65  48  53 N9        30.20R
PLATTSMOUTH    SUNNY     65  42  43 N8        30.20S
WAHOO          FAIR      67  43  41 N9G20     30.22R
$$




USA.gov is the U.S. government's official web portal to all federal, state and local government web resources and services.